Content
SEND FEEDBACK

Daily
Averages
Monthly
Summary
United States of America

GAINES SCHOOL, GEORGIA


Home > North America > United States > Georgia
Elevation: 810 feet     Latitude: 33 57N     Longitude: 083 19W

WEATHER
 
SELECT A DAY
Number of Records: 216,591;   Date Range: 1/1/95 - 7/23/14
 
SHARE

PRINT THIS DATA

[ ← Previous Day ]
WEATHER ALMANAC - FEBRUARY 13, 2013
[ Next Day → ]
[ °C ]   °F
Weather ElementAverageHighLow
Temperature46.4 °F54 °F (2:51 pm)37.9 °F (11:51 pm)
Dewpoint43.3 °F48.2 °F (1:28 pm)33.1 °F (11:51 pm)
Humidity89.7 %100 % (8:09 am)67 % (3:42 pm)
Barometer29.81 in29.94 in (11:51 pm)29.75 in (2:51 pm)
Wind Speed6.6 mph18.4 mph (4:15 pm)
Wind Gust28.8 mph (4:15 pm)
Weather ElementAverage
Visibility5.6 mi
Wind DirectionSSE (149.4 °)

Weather ElementTotal
Precipitation0.08 in
Heating Degree Days19.1 (Base 65)
Averaged from 50 records on February 13, 2013
WEATHER CONDITIONS BREAKOUT
WIND DIRECTION BREAKOUT
WEATHER BY HOUR - FEBRUARY 13, 2013
[ °C ]   °F
Local TimeTemperatureDewpointHumidityBarometerVisibilityWind DirectionWind SpeedGust SpeedPrecipitationEventsConditions
12:33 AM44.6 °F42.8 °F93 %29.87 in5.0 miENE (70°)8.1 mph0.00 inOvercast
12:51 AM44.1 °F43.0 °F96 %29.86 in9.0 miENE (70°)6.9 mph0.00 inOvercast
1:51 AM44.1 °F43.0 °F96 %29.85 in10.0 miENE (70°)8.1 mphOvercast
2:20 AM44.6 °F42.8 °F93 %29.84 in2.5 miENE (70°)5.8 mph0.01 inRainLight Rain
2:36 AM44.6 °F42.8 °F93 %29.84 in4.0 miNE (50°)5.8 mph0.01 inOvercast
2:51 AM44.1 °F43.0 °F96 %29.84 in5.0 miENE (60°)6.9 mph0.01 inOvercast
3:51 AM44.1 °F43.0 °F96 %29.81 in2.5 miENE (60°)6.9 mph0.00 inOvercast
4:51 AM44.1 °F43.0 °F96 %29.79 in2.0 miENE (70°)12.7 mph0.01 inOvercast
5:30 AM44.6 °F42.8 °F93 %29.78 in3.0 miENE (70°)8.1 mph0.00 inOvercast
5:51 AM44.1 °F43.0 °F96 %29.78 in3.0 miEast (80°)9.2 mph0.00 inOvercast
6:02 AM44.6 °F42.8 °F93 %29.78 in2.5 miEast (90°)8.1 mphOvercast
6:31 AM44.6 °F42.8 °F93 %29.76 in3.0 miEast (80°)8.1 mph0.01 inOvercast
6:51 AM44.1 °F43.0 °F96 %29.77 in4.0 miEast (80°)6.9 mph0.01 inOvercast
7:45 AM44.6 °F42.8 °F93 %29.79 in1.8 miCalmOvercast
7:51 AM44.1 °F43.0 °F96 %29.78 in1.2 miEast (80°)6.9 mphOvercast
7:59 AM44.6 °F42.8 °F93 %29.82 in1.2 miNNW (340°)4.6 mphOvercast
8:09 AM44.6 °F44.6 °F100 %29.81 in1.5 miENE (60°)3.5 mphOvercast
8:17 AM44.6 °F44.6 °F100 %29.79 in1.2 miESE (120°)4.6 mphOvercast
8:34 AM44.6 °F44.6 °F100 %29.77 in1.8 miVariable4.6 mphOvercast
8:51 AM44.1 °F44.1 °F100 %29.81 in2.0 miCalmOvercast
9:30 AM44.6 °F44.6 °F100 %29.76 in1.5 miEast (90°)4.6 mphOvercast
9:40 AM44.6 °F44.6 °F100 %29.78 in1.2 miCalmOvercast
9:48 AM44.6 °F44.6 °F100 %29.81 in1.8 miCalmOvercast
9:51 AM45.0 °F44.1 °F97 %29.78 in1.8 miCalmOvercast
10:25 AM46.4 °F44.6 °F93 %29.79 in1.0 miCalmOvercast
10:41 AM46.4 °F44.6 °F93 %29.79 in2.0 miCalm0.01 inOvercast
10:51 AM46.0 °F45.0 °F96 %29.81 in2.5 miCalm0.01 inOvercast
11:38 AM46.4 °F46.4 °F100 %29.77 in3.0 miWest (260°)4.6 mphOvercast
11:47 AM46.4 °F46.4 °F100 %29.79 in2.5 miWest (260°)5.8 mphOvercast
11:51 AM46.9 °F46.0 °F97 %29.78 in2.5 miWSW (240°)4.6 mphOvercast
11:59 AM46.4 °F46.4 °F100 %29.80 in4.0 miWSW (240°)6.9 mphOvercast
12:34 PM48.2 °F46.4 °F93 %29.77 in8.0 miWest (270°)5.8 mphOvercast
12:51 PM48.9 °F46.9 °F93 %29.79 in10.0 miWest (260°)9.2 mphOvercast
1:01 PM50.0 °F46.4 °F87 %29.78 in10.0 miWest (260°)4.6 mphOvercast
1:28 PM51.8 °F48.2 °F88 %29.78 in10.0 miWSW (250°)9.2 mphOvercast
1:51 PM52.0 °F46.9 °F83 %29.77 in10.0 miWSW (240°)5.8 mphOvercast
2:15 PM51.8 °F46.4 °F82 %29.76 in10.0 miWest (260°)5.8 mphOvercast
2:51 PM54.0 °F46.9 °F77 %29.75 in10.0 miWSW (250°)10.4 mphMostly Cloudy
3:42 PM53.6 °F42.8 °F67 %29.76 in10.0 miWest (270°)12.7 mph20.7 mphOvercast
3:51 PM53.1 °F44.1 °F71 %29.77 in10.0 miWest (270°)8.1 mph21.9 mphOvercast
4:03 PM53.6 °F44.6 °F72 %29.76 in10.0 miWest (270°)15.0 mph24.2 mphOvercast
4:15 PM51.8 °F42.8 °F71 %29.77 in10.0 miWNW (300°)18.4 mph28.8 mphOvercast
4:51 PM50.0 °F39.9 °F68 %29.81 in10.0 miWNW (290°)17.3 mph26.5 mphOvercast
5:51 PM48.0 °F39.0 °F71 %29.83 in10.0 miWest (270°)11.5 mph18.4 mphOvercast
6:51 PM46.9 °F39.9 °F77 %29.85 in10.0 miWest (270°)10.4 mph20.7 mphMostly Cloudy
7:51 PM46.9 °F39.9 °F77 %29.87 in10.0 miVariable5.8 mph17.3 mphOvercast
8:51 PM45.0 °F37.9 °F76 %29.89 in10.0 miWNW (300°)10.4 mphClear
9:51 PM43.0 °F36.0 °F76 %29.91 in10.0 miWest (280°)8.1 mphClear
10:51 PM39.9 °F35.1 °F83 %29.93 in10.0 miWest (260°)5.8 mphClear
11:51 PM37.9 °F33.1 °F83 %29.94 in10.0 miWNW (290°)5.8 mphClear
Hourly data recorded from KAHN, located miles away from Gaines School, Georgia







STORIES FROM OUR PARTNERS